Regional Weather Roundup
Issued by NWS

Home | Current Version | Previous Version | Graphics & Text | Print | Product List | Glossary On
Versions: 1 2 3 4 5 6 7 8 9 10 11 12 13 14 15 16 17 18 19 20 21 22 23 24 25 26 27 28 29 30 31 32 33 34 35 36 37 38 39 40 41 42 43 44 45 46 47 48 49 50
000
ASUS43 KIND 251100
RWRIN

WEATHER ROUNDUP FOR INDIANA
NATIONAL WEATHER SERVICE INDIANAPOLIS IN
700 AM EDT FRI MAY 25 2018

NOTE: "FAIR" INDICATES FEW OR NO CLOUDS BELOW 12,000 FEET WITH NO
SIGNIFICANT WEATHER AND/OR OBSTRUCTIONS TO VISIBILITY.

* - STATION DOES NOT REPORT WEATHER SUCH AS PRECIPITATION OR FOG.

+ - STATION NOT QUALITY CONTROLLED BY THE NATIONAL WEATHER SERVICE.
    USE DATA WITH CAUTION...ESPECIALLY DEWPOINT AND RELATIVE
    HUMIDITY OBSERVATIONS.

INZ001>003-010>013-019-020-251200-
NORTHWEST INDIANA

CITY           SKY/WX    TMP DP  RH WIND       PRES   REMARKS
KNOX *+        FAIR      59  52  77 S3        30.00F
MICHIGAN CITY+ FAIR      61  50  67 CALM      29.99F
MONTICELLO +   FAIR      57  55  94 CALM      30.01S

$$

LMZ046-743>745-251200-
SOUTHERN LAKE MICHIGAN

STATION/POSITION TIME  TEMP    WIND        PRES    WAVE
                       AIR SEA DIR/SP/G            HT
                 (UTC) (F)     (DEG/KT/KT) (MB)    (FT)
BURNS HARBOR     1040   67     190/  9/ 11 1015.6S
MICHIGAN CITY    1030   70     160/ 12/ 14   N/A
5NW MICH CITY    1050   62 59  190/  6/  8   N/A     0

$$

INZ004-005-014>016-021>024-251200-
NORTH CENTRAL INDIANA

CITY           SKY/WX    TMP DP  RH WIND       PRES   REMARKS
ELKHART        FAIR      55  54  94 CALM      30.00
GOSHEN         FAIR      58  53  84 CALM      30.01F
SOUTH BEND     FAIR      61  49  64 S3        30.00F
WARSAW +       FAIR      54  52  94 CALM      30.02F

$$

INZ006>009-017-018-025>027-251200-
NORTHEAST INDIANA

CITY           SKY/WX    TMP DP  RH WIND       PRES   REMARKS
ANGOLA *+      FAIR      55  54  94 CALM      30.02S
AUBURN +       FAIR      54  52  94 CALM      30.03S
FORT WAYNE     FAIR      57  52  83 CALM      30.03F

$$

INZ028-029-035-036-043>045-051>053-251200-
WEST CENTRAL INDIANA

CITY           SKY/WX    TMP DP  RH WIND       PRES   REMARKS
CRAWFORDSVL +  FAIR      55  55  99 CALM      30.03S
GREENCASTLE +  FAIR      55  52  88 CALM      30.03S
LAFAYETTE      FAIR      55  53  93 CALM      30.01S
TERRE HAUTE    FAIR      58  55  90 CALM      30.01F

$$

INZ030>032-037>040-046>048-054>057-064-065-251200-
CENTRAL INDIANA

CITY           SKY/WX    TMP DP  RH WIND       PRES   REMARKS
ANDERSON       FAIR      55  53  93 CALM      30.04S
COLUMBUS       CLEAR     57  54  88 CALM      30.03
FRANKFORT +    FAIR      59  54  81 CALM      30.04S
GREENWOOD *+   FAIR      59  55  84 CALM      30.03F
INDIANAPOLIS   FAIR      64  56  75 CALM      30.02S
-EAGLE CREEK   FAIR      60  57  89 CALM      30.02S
KOKOMO +       FAIR      58  53  84 CALM      30.03F
MT COMFORT *+  FAIR      55  55 100 CALM      30.04S
SHELBYVILLE    FAIR      59  54  83 E5        30.02F

$$

INZ033-034-041-042-049-050-058-059-251200-
EAST CENTRAL INDIANA

CITY           SKY/WX    TMP DP  RH WIND       PRES   REMARKS
MUNCIE         FAIR      59  52  77 CALM      30.04S
RICHMOND +     FAIR      55  54  94 CALM      30.06S

$$

INZ060-061-067>069-081>083-085>088-251200-
SOUTHWEST INDIANA

CITY           SKY/WX    TMP DP  RH WIND       PRES   REMARKS
EVANSVILLE     FAIR      62  60  93 CALM      30.01F
HUNTINGBURG +  FAIR      59  57  93 CALM      30.02S

$$

INZ062-063-066-070>080-084-089>092-251200-
SOUTH CENTRAL AND SOUTHEAST INDIANA

CITY           SKY/WX    TMP DP  RH WIND       PRES   REMARKS
BLOOMINGTON    FAIR      57  56  96 CALM      30.02S
FRENCH LICK *+ FAIR      59  55  88 CALM      30.03S
SEYMOUR +      FOG       57  57 100 CALM      30.03S VSB 1/4

$$





USA.gov is the U.S. government's official web portal to all federal, state and local government web resources and services.